Overview Statistics Trail Chart Weather Telemetry Raw packets
 

This is the latest recevied weather packets stored in our database for station/object DL0BB-10. If no packets are shown the sender has not sent any weather packets the latest 10 day(s).

<< 13 14 15 16 17 18 19 >>
Time Temp. Humidity Pressure Rain* Wind** Luminosity Snow
1788386391 26.67° C 39% 1022.8 hPa - - - -
1788385491 25.56° C 40% 1022.6 hPa - - - -
1788384591 26.11° C 40% 1022.6 hPa - - - -
1788383691 26.67° C 39% 1022.5 hPa - - - -
1788382789 26.11° C 39% 1022.5 hPa - - - -
1788381895 26.11° C 40% 1022.5 hPa - - - -
1788380994 26.11° C 39% 1022.4 hPa - - - -
1788380094 26.67° C 38% 1022.3 hPa - - - -
1788379218 26.11° C 40% 1022.2 hPa - - - -
1788378294 26.11° C 40% 1022.1 hPa - - - -
1788377394 26.67° C 39% 1022.1 hPa - - - -
1788376494 27.22° C 38% 1021.9 hPa - - - -
1788375594 26.11° C 40% 1021.8 hPa - - - -
1788374694 26.67° C 40% 1021.6 hPa - - - -
1788373792 26.67° C 39% 1021.4 hPa - - - -
1788372892 27.22° C 38% 1021.2 hPa - - - -
1788371992 26.67° C 40% 1021.1 hPa - - - -
1788371092 26.67° C 40% 1020.9 hPa - - - -
1788370192 27.22° C 39% 1021 hPa - - - -
1788369291 27.22° C 39% 1020.8 hPa - - - -
1788368390 26.67° C 40% 1020.8 hPa - - - -
1788367490 26.67° C 39% 1020.7 hPa - - - -
1788366590 27.22° C 38% 1020.7 hPa - - - -
1788365690 26.67° C 40% 1020.8 hPa - - - -
1788364790 26.67° C 40% 1020.8 hPa - - - -

* Rain since midnight (hover to see other rain measurements)
** Current wind speed in m/s (hover to see current wind gust speed)